Content
SEND FEEDBACK

Daily
Averages
Monthly
Summary
Austria

INNSBRUCK, AUSTRIA


Home > Europe > Austria
Elevation: 1994 feet     Latitude: 47 15N     Longitude: 011 20E

WEATHER
 
SELECT A DAY
Number of Records: 311,614;   Date Range: 7/1/96 - 9/15/14
 
SHARE

PRINT THIS DATA

[ ← Previous Day ]
WEATHER ALMANAC - JANUARY 31, 2013
[ Next Day → ]
[ °C ]   °F
Weather ElementAverageHighLow
Temperature39 °F48.2 °F (1:50 pm)28.4 °F (7:50 am)
Dewpoint31.4 °F37.4 °F (12:50 am)26 °F (1:00 pm)
Humidity76.1 %100 % (12:50 am)34 % (1:00 pm)
Barometer30.09 in30.29 in (7:00 am)29.95 in (11:20 pm)
Wind Speed3.1 mph6.9 mph (4:20 pm)
Weather ElementAverage
Visibility9 mi
Wind DirectionNNE (36.4 °)

Weather ElementTotal
Precipitation---
Heating Degree Days26.7 (Base 65)
Averaged from 55 records on January 31, 2013
WEATHER CONDITIONS BREAKOUT
WIND DIRECTION BREAKOUT
WEATHER BY HOUR - JANUARY 31, 2013
[ °C ]   °F
Local TimeTemperatureDewpointHumidityBarometerVisibilityWind DirectionWind SpeedGust SpeedPrecipitationEventsConditions
12:50 AM37.4 °F37.4 °F100 %30.12 in2.5 miVariable2.3 mphRainLight Rain
1:00 AM37.0 °F37.0 °F99 %30.20 in2.0 mi°2.2 mph
1:20 AM37.4 °F37.4 °F100 %30.15 in3.1 miVariable3.5 mphOvercast
1:50 AM37.4 °F37.4 °F100 %30.15 in3.7 miSE (140°)4.6 mphMostly Cloudy
2:20 AM39.2 °F37.4 °F93 %30.15 in6.2 miVariable2.3 mphMostly Cloudy
2:50 AM37.4 °F37.4 °F100 %30.15 in4.3 miVariable2.3 mphMostly Cloudy
3:20 AM37.4 °F37.4 °F100 %30.15 in5.6 miVariable4.6 mphPartly Cloudy
3:50 AM35.6 °F35.6 °F100 %30.15 in6.2 miVariable2.3 mphMostly Cloudy
4:00 AM35.0 °F35.0 °F98 %30.25 in12.0 mi°2.2 mphPartly Cloudy
4:20 AM35.6 °F35.6 °F100 %30.15 in6.2 miVariable4.6 mphScattered Clouds
4:50 AM33.8 °F33.8 °F100 %30.15 in6.2 miVariable2.3 mphScattered Clouds
5:20 AM33.8 °F33.8 °F100 %30.15 in6.2 miVariable3.5 mphScattered Clouds
5:50 AM32.0 °F32.0 °F100 %30.15 in6.2 miVariable2.3 mphScattered Clouds
6:20 AM30.2 °F30.2 °F100 %30.18 in1.9 miWSW (240°)3.5 mphFogLight Freezing Fog
6:50 AM30.2 °F30.2 °F100 %30.18 in6.2 miVariable2.3 mphPartly Cloudy
7:00 AM30.0 °F30.0 °F100 %30.29 in1.0 mi°2.2 mphFogPatches of Fog
7:20 AM30.2 °F30.2 °F100 %30.18 in6.2 miVariable2.3 mphPartly Cloudy
7:50 AM28.4 °F28.4 °F100 %30.18 in1.6 miWest (270°)3.5 mphPartly Cloudy
8:20 AM30.2 °F30.2 °F100 %30.18 in6.2 miVariable1.2 mphFogShallow Fog
8:50 AM30.2 °F30.2 °F100 %30.18 in6.2 miVariable1.2 mphFogShallow Fog
9:20 AM32.0 °F32.0 °F100 %30.18 in6.2 miWSW (240°)3.5 mphFogShallow Fog
9:50 AM35.6 °F33.8 °F93 %30.18 in6.2 miVariable2.3 mphFogShallow Fog
10:00 AM35.0 °F33.0 °F92 %30.27 in44.0 mi°2.2 mphScattered Clouds
10:20 AM37.4 °F33.8 °F87 %30.18 in6.2 miVariable1.2 mphFogShallow Fog
10:50 AM39.2 °F30.2 °F70 %30.18 in6.2 miVariable2.3 mphFogShallow Fog
11:20 AM41.0 °F30.2 °F65 %30.18 in6.2 miVariable2.3 mphFogShallow Fog
11:50 AM41.0 °F30.2 °F65 %30.15 inVariable2.3 mphClear
12:20 PM42.8 °F32.0 °F66 %30.12 inCalmClear
12:50 PM44.6 °F26.6 °F49 %30.09 inVariable2.3 mphClear
1:00 PM45.0 °F26.0 °F34 %30.14 in44.0 mi°2.2 mphPartly Cloudy
1:20 PM46.4 °F26.6 °F46 %30.06 inVariable2.3 mphClear
1:50 PM48.2 °F28.4 °F46 %30.04 inVariable1.2 mphClear
2:20 PM46.4 °F28.4 °F50 %30.01 inVariable1.2 mphClear
2:50 PM46.4 °F28.4 °F50 %30.01 inVariable2.3 mphClear
3:20 PM46.4 °F30.2 °F53 %30.01 inVariable1.2 mphClear
3:50 PM46.4 °F30.2 °F53 %29.98 inVariable1.2 mphClear
4:00 PM46.0 °F30.0 °F42 %30.02 in44.0 mi°2.2 mphPartly Cloudy
4:20 PM44.6 °F28.4 °F53 %29.98 inWest (260°)6.9 mphClear
4:50 PM44.6 °F28.4 °F53 %30.01 inEast (100°)5.8 mphClear
5:20 PM42.8 °F28.4 °F57 %30.01 inSE (140°)5.8 mphClear
5:50 PM41.0 °F30.2 °F65 %29.98 inSE (130°)4.6 mphClear
6:20 PM41.0 °F32.0 °F70 %29.98 in6.2 miVariable4.6 mphMostly Cloudy
6:50 PM41.0 °F30.2 °F65 %30.01 in6.2 miVariable3.5 mphMostly Cloudy
7:00 PM40.0 °F31.0 °F59 %30.06 in22.0 mi°4.5 mphScattered Clouds
7:20 PM39.2 °F30.2 °F70 %30.01 in6.2 miVariable2.3 mphMostly Cloudy
7:50 PM39.2 °F30.2 °F70 %29.98 in6.2 miVariable3.5 mphMostly Cloudy
8:20 PM37.4 °F30.2 °F75 %29.98 in6.2 miVariable2.3 mphMostly Cloudy
8:50 PM39.2 °F32.0 °F75 %30.01 in6.2 miEast (100°)3.5 mphMostly Cloudy
9:20 PM39.2 °F30.2 °F70 %30.01 in6.2 miVariable4.6 mphMostly Cloudy
9:50 PM41.0 °F30.2 °F65 %29.98 in6.2 miVariable3.5 mphMostly Cloudy
10:00 PM40.0 °F31.0 °F59 %30.04 in19.0 mi°4.5 mphScattered Clouds
10:20 PM41.0 °F30.2 °F65 %29.98 in6.2 miVariable4.6 mphMostly Cloudy
10:50 PM41.0 °F30.2 °F65 %29.98 in6.2 miVariable4.6 mphMostly Cloudy
11:20 PM46.4 °F26.6 °F46 %29.95 in6.2 miEast (90°)4.6 mphOvercast
11:50 PM46.4 °F28.4 °F50 %29.98 in6.2 miVariable6.9 mphMostly Cloudy
Hourly data recorded from LOWI, located miles away from Innsbruck, Austria







STORIES FROM OUR PARTNERS